星链-32384 (STARLINK-32384)

导读

STARLINK-32384是美国于2024年11月30日发射的星链卫星,隶属于SpaceX公司的星链星座项目。星链旨在构建全球卫星互联网星座,为全球各地用户提供高速宽带接入服务,尤其覆盖偏远地区。该卫星加入低轨星座后,进一步扩大了星链系统的服务覆盖范围,提升了网络容量和服务稳定性,助力全球互联基础设施建设。

Basic Information
目录编号:
62146
目录名称:
STARLINK-32384
国际标识:
2024-224H
轨道中心:
EARTH
卫星名称:
星链-32384
卫星全名:
星链-32384 (STARLINK-32384)
卫星状态:
在轨 (已飞行644 天)
发射日期:
2024-11-30 UTC
国别 :
美国 (US)
星等 :
--
Orbit Information
数据来源 国际轨道数据
星历时间: 2026-09-05T08:16:44+0800
10小时前
查看轨道信息
半长轴: 6861.181km
偏心率: 0.0001321
轨道倾角: 43.000°
近地点辐角 267.984°
升交点赤经 225.505°
平近点角 92.086°
近地点: 482.137km
远地点: 483.951km
周期: 94.267分钟
每日圈数: 15.275818
Detailed Information
固有亮度:
5
最大亮度:
2.5
卫星平台:
Starlink V1.0
覆盖范围:
全球
运营商:
太空探索技术公司
运营商所在国:
美国
制造商(研发单位):
太空探索技术公司
制造商所在国:
美国
使用方式:
暂无
Satellite Introduction
Starlink 计划是 SpaceX 推出的全球卫星互联网项目,通过发射低轨道卫星,为全球尤其是偏远地区提供高速、低延迟的互联网服务。自 2019 年起,Starlink 已部署数千颗卫星,旨在缩小全球数字鸿沟,推动互联网普及。该项目还为军事、航空等行业提供通信支持,带来广泛经济效益。
2D Orbit Map
3D Orbit Map
Orbit Altitude Analysis Chart
Orbit Inclination Analysis Chart
Orbit Comprehensive Analysis Chart
View Comprehensive Chart
Conjunction Data List
Event ID Objects TCA Miss Dist (km) Collision Risk Probability Collision Risk Index (CRI) Action
CDM_260907-110105-534906-214621
2026-09-07T
11:01:21+0000
0.114 km
中距离
1.057031E-3 极高风险 0.95
CDM_260828-190505-970006-214621
2026-08-28T
19:05:19+0000
0.338 km
远距离
3.170983E-4 高风险 0.85
CDM_260907-125405-970006-214621
2026-09-07T
12:54:38+0000
0.537 km
远距离
1.176668E-4 高风险 0.76
CDM_260907-142805-970006-214621
2026-09-07T
14:28:47+0000
1.470 km
极远距离
4.669269E-6 低风险 0.48
CDM_260907-092705-534906-214621
2026-09-07T
09:27:12+0000
1.884 km
极远距离
2.598769E-6 低风险 0.43
CDM_260907-123505-534906-214621
2026-09-07T
12:35:31+0000
2.126 km
极远距离
1.922686E-6 低风险 0.41
CDM_260906-034005-913606-214621
2026-09-06T
03:40:04+0000
2.479 km
极远距离
1.74715E-6 低风险 0.4
CDM_260828-203905-970006-214621
2026-08-28T
20:39:28+0000
2.229 km
极远距离
1.504483E-6 低风险 0.39
CDM_260907-112005-970006-214621
2026-09-07T
11:20:28+0000
2.464 km
极远距离
1.240874E-6 低风险 0.37